Pittsfield, MA

9:57 AM EST on January 21, 2018 (GMT -0500)
Pittsfield Municipal

Weather History for KPSF - September, 2013

Change the Weather History Date:

Saturday, September 14, 2013

  Actual Average Record
Temperature  
Mean Temperature 51 °F 59 °F  
Max Temperature 56 °F 70 °F 89 °F (1931)
Min Temperature 46 °F 49 °F 32 °F (1946)
Degree Days  
Heating Degree Days 14 6  
Month to date heating degree days 71 63  
Since 1 July heating degree days 127 141  
Cooling Degree Days 0 0  
Month to date cooling degree days 33 16  
Year to date cooling degree days 433 286  
Growing Degree Days 2 (Base 50)    
Moisture  
Dew Point 46 °F    
Average Humidity 82    
Maximum Humidity 93    
Minimum Humidity 71    
Precipitation  
Precipitation 0.01 in 0.14 in 1.29 in (1944)
Month to date precipitation 2.45 1.63  
Year to date precipitation 30.55 31.41  
Sea Level Pressure  
Sea Level Pressure 29.93 in    
Wind  
Wind Speed 8 mph (WNW)    
Max Wind Speed 14 mph    
Max Gust Speed 24 mph    
Visibility 8 miles    
Events      
T = Trace of Precipitation, MM = Missing Value Source: NWS Daily Summary

Daily Weather History Graph

Daily Weather History Graph

Search for Another Location

Airport or City:

Trip Planner

Search our weather history database for the weather conditions in past years. The results will help you decide how hot, cold, wet, or windy it might be!

Date:

Astronomy

Sep. 14, 2013 Rise Set
Actual Time 6:32 AM EDT 7:04 PM EDT
Civil Twilight 6:03 AM EDT 7:32 PM EDT
Nautical Twilight 5:30 AM EDT 8:05 PM EDT
Astronomical Twilight 4:56 AM EDT 8:40 PM EDT
Moon 3:48 PM EDT (9/14) 12:56 AM EDT (9/14)
Length of Visible Light 13h 28m
Length of Day
12h 32m
Waxing Gibbous, 72% of the Moon is Illuminated
Sep 14
Waxing Gibbous
Sep 19
Full
Sep 26
Last Quarter
Oct 4
New
Oct 11
First Quarter

Hourly Weather History & Observations

Time (EDT) Temp. Dew Point Humidity Pressure Visibility Wind Dir Wind Speed Gust Speed Precip Events Conditions
12:19 AM 50.0 °F 48.2 °F 94% 29.85 in 3.0 mi WNW 9.2 mph - 0.00 in   Overcast
12:28 AM 50.0 °F 48.2 °F 94% 29.85 in 3.0 mi WNW 8.1 mph - 0.00 in   Overcast
12:41 AM 50.0 °F 48.2 °F 94% 29.85 in 3.0 mi WNW 8.1 mph - 0.00 in   Overcast
12:54 AM 50.0 °F 48.0 °F 93% 29.81 in 4.0 mi WNW 6.9 mph - 0.00 in   Overcast
1:14 AM 50.0 °F 48.2 °F 94% 29.86 in 6.0 mi West 10.4 mph - N/A   Overcast
1:54 AM 48.9 °F 46.9 °F 93% 29.82 in 10.0 mi WNW 9.2 mph - 0.01 in   Overcast
2:00 AM 48.2 °F 46.4 °F 93% 29.86 in 10.0 mi WNW 8.1 mph - N/A   Overcast
2:29 AM 48.2 °F 46.4 °F 93% 29.87 in 10.0 mi WNW 8.1 mph - N/A   Overcast
2:50 AM 48.2 °F 46.4 °F 93% 29.87 in 10.0 mi WNW 9.2 mph - N/A   Overcast
2:54 AM 48.9 °F 46.9 °F 93% 29.83 in 10.0 mi WNW 11.5 mph - N/A   Overcast
3:54 AM 48.0 °F 46.9 °F 96% 29.84 in 6.0 mi West 8.1 mph - N/A   Overcast
4:54 AM 48.0 °F 46.9 °F 96% 29.85 in 3.0 mi West 9.2 mph - N/A   Overcast
5:54 AM 48.0 °F 46.0 °F 93% 29.87 in 6.0 mi WNW 6.9 mph - N/A   Overcast
6:02 AM 48.2 °F 46.4 °F 93% 29.90 in 7.0 mi WNW 6.9 mph - N/A   Overcast
6:54 AM 48.0 °F 46.0 °F 93% 29.89 in 6.0 mi WNW 10.4 mph - N/A   Overcast
7:22 AM 48.2 °F 46.4 °F 93% 29.93 in 7.0 mi NW 9.2 mph - N/A   Overcast
7:54 AM 48.0 °F 45.0 °F 89% 29.92 in 10.0 mi NW 12.7 mph - N/A   Overcast
8:54 AM 48.9 °F 46.0 °F 90% 29.94 in 10.0 mi Variable 6.9 mph - N/A   Overcast
9:54 AM 48.9 °F 46.0 °F 90% 29.96 in 10.0 mi West 11.5 mph - N/A   Overcast
10:42 AM 51.8 °F 46.4 °F 82% 29.97 in 10.0 mi WNW 6.9 mph - N/A   Overcast
10:54 AM 51.1 °F 46.9 °F 86% 29.95 in 10.0 mi NW 8.1 mph - N/A   Overcast
11:54 AM 54.0 °F 46.9 °F 77% 29.95 in 10.0 mi NW 6.9 mph - N/A   Overcast
12:54 PM 54.0 °F 46.0 °F 75% 29.96 in 10.0 mi WNW 12.7 mph 16.1 mph N/A   Overcast
1:54 PM 54.0 °F 46.9 °F 77% 29.95 in 10.0 mi WNW 10.4 mph - N/A   Overcast
2:54 PM 55.9 °F 46.9 °F 72% 29.96 in 10.0 mi NW 5.8 mph - N/A   Overcast
3:46 PM 55.4 °F 46.4 °F 72% 29.99 in 10.0 mi West 8.1 mph - N/A   Overcast
3:54 PM 55.9 °F 46.9 °F 72% 29.96 in 10.0 mi West 6.9 mph - N/A   Overcast
4:08 PM 55.4 °F 46.4 °F 72% 29.99 in 10.0 mi WNW 6.9 mph 24.2 mph N/A   Overcast
4:54 PM 55.0 °F 46.9 °F 74% 29.98 in 10.0 mi West 8.1 mph - N/A   Overcast
5:54 PM 55.0 °F 46.9 °F 74% 30.00 in 10.0 mi West 6.9 mph - N/A   Overcast
6:54 PM 55.0 °F 46.9 °F 74% 30.01 in 10.0 mi West 5.8 mph - N/A   Overcast
7:54 PM 54.0 °F 46.0 °F 75% 30.03 in 10.0 mi WSW 6.9 mph - N/A   Overcast
8:54 PM 53.1 °F 45.0 °F 74% 30.06 in 10.0 mi WNW 11.5 mph - N/A   Overcast
9:54 PM 50.0 °F 44.1 °F 80% 30.06 in 10.0 mi WNW 6.9 mph - N/A   Scattered Clouds
10:54 PM 48.9 °F 43.0 °F 80% 30.07 in 10.0 mi West 8.1 mph - N/A   Clear
11:54 PM 48.0 °F 42.1 °F 80% 30.08 in 10.0 mi WNW 4.6 mph - N/A   Clear